| time (UTC) | temp C | wind direction | speed KPH | gust KPH | rain 1hr cm | rain 24hr cm | rain mn cm | humidity % | barometer mb |
| 20260510091834 | 20 | 279 | 14.5 | 27.4 | 0.00 | 1.45 | 0.00 | 70 | 1012.4 |
| 20260510091334 | 19 | 274 | 14.5 | 27.4 | 0.00 | 1.45 | 0.00 | 71 | 1012.3 |
| 20260510090903 | 19 | 264 | 17.7 | 27.4 | 0.00 | 1.45 | 0.00 | 70 | 1012.4 |
| 20260510090453 | 19 | 282 | 11.3 | 27.4 | 0.00 | 1.45 | 0.00 | 71 | 1012.3 |
| 20260510085858 | 19 | 302 | 14.5 | 20.9 | 0.00 | 1.45 | 0.00 | 70 | 1012.4 |
| 20260510085331 | 19 | 238 | 9.7 | 22.5 | 0.00 | 1.45 | 0.00 | 71 | 1012.3 |
| 20260510084851 | 19 | 272 | 11.3 | 22.5 | 0.00 | 1.45 | 0.00 | 71 | 1012.4 |
| 20260510084440 | 19 | 303 | 9.7 | 17.7 | 0.00 | 1.45 | 0.00 | 73 | 1012.3 |
| 20260510083848 | 18 | 249 | 9.7 | 17.7 | 0.00 | 1.45 | 0.00 | 74 | 1012.3 |
| 20260510083435 | 18 | 269 | 9.7 | 17.7 | 0.00 | 1.45 | 0.00 | 75 | 1012.4 |
| 20260510082840 | 18 | 270 | 12.9 | 17.7 | 0.00 | 1.45 | 0.00 | 74 | 1012.4 |
| 20260510082429 | 18 | 256 | 11.3 | 17.7 | 0.00 | 1.45 | 0.00 | 75 | 1012.3 |
| 20260510081832 | 18 | 249 | 8.0 | 20.9 | 0.00 | 1.45 | 0.00 | 75 | 1012.4 |
| 20260510081458 | 18 | 276 | 14.5 | 20.9 | 0.00 | 1.45 | 0.00 | 75 | 1012.4 |
| 20260510080831 | 18 | 268 | 6.4 | 29.0 | 0.00 | 1.45 | 0.00 | 76 | 1012.3 |
| 20260510080608 | 17 | 251 | 17.7 | 25.7 | 0.00 | 1.45 | 0.00 | 76 | 1012.2 |
| 20260510080529 | 17 | 249 | 11.3 | 29.0 | 0.00 | 1.45 | 0.00 | 76 | 1012.3 |
| 20260510075955 | 17 | 269 | 14.5 | 25.7 | 0.00 | 1.45 | 0.00 | 76 | 1012.2 |
| 20260510075237 | 17 | 309 | 17.7 | 29.0 | 0.00 | 1.45 | 0.00 | 77 | 1012.2 |
| 20260510074914 | 17 | 276 | 11.3 | 27.4 | 0.00 | 1.45 | 0.00 | 77 | 1012.2 |
| 20260510073831 | 17 | 284 | 14.5 | 29.0 | 0.00 | 1.45 | 0.00 | 77 | 1012.2 |
| 20260510073405 | 17 | 276 | 16.1 | 24.1 | 0.00 | 1.45 | 0.00 | 77 | 1012.3 |
| 20260510073127 | 17 | 273 | 14.5 | 24.1 | 0.00 | 1.45 | 0.00 | 78 | 1012.2 |
| 20260510072359 | 17 | 264 | 16.1 | 24.1 | 0.00 | 1.45 | 0.00 | 77 | 1012.2 |
| 20260510071835 | 17 | 271 | 17.7 | 24.1 | 0.00 | 1.45 | 0.00 | 77 | 1012.3 |
| 20260510071809 | 16 | 233 | 9.7 | 14.5 | 0.00 | 1.45 | 0.00 | 79 | 1012.3 |
| 20260510071433 | 17 | 240 | 14.5 | 22.5 | 0.00 | 1.45 | 0.00 | 77 | 1012.2 |
| 20260510071032 | 17 | 243 | 14.5 | 19.3 | 0.00 | 1.45 | 0.00 | 77 | 1012.3 |
| 20260510070601 | 16 | 269 | 9.7 | 19.3 | 0.00 | 1.45 | 0.00 | 78 | 1012.3 |
| 20260510065447 | 16 | 276 | 12.9 | 16.1 | 0.00 | 1.45 | 0.00 | 79 | 1012.2 |
| 20260510065405 | 16 | 266 | 8.0 | 16.1 | 0.00 | 1.45 | 0.00 | 79 | 1012.3 |
| 20260510065033 | 16 | 266 | 11.3 | 16.1 | 0.00 | 1.45 | 0.00 | 79 | 1012.2 |
| 20260510063929 | 16 | 271 | 9.7 | 12.9 | 0.00 | 1.45 | 0.00 | 79 | 1012.1 |
| 20260510063331 | 16 | 269 | 8.0 | 11.3 | 0.00 | 1.45 | 0.00 | 79 | 1012.2 |
| 20260510063106 | 16 | 271 | 6.4 | 14.5 | 0.00 | 1.45 | 0.00 | 79 | 1012.1 |
| 20260510063029 | 16 | 243 | 6.4 | 11.3 | 0.00 | 1.45 | 0.00 | 79 | 1012.1 |
| 20260510062043 | 16 | 270 | 6.4 | 11.3 | 0.00 | 1.45 | 0.00 | 80 | 1012.1 |
| 20260510061935 | 16 | 265 | 8.0 | 16.1 | 0.00 | 1.45 | 0.00 | 79 | 1012.1 |
| 20260510061540 | 16 | 290 | 9.7 | 16.1 | 0.00 | 1.45 | 0.00 | 79 | 1012.0 |
| 20260510061211 | 16 | 274 | 8.0 | 14.5 | 0.00 | 1.45 | 0.00 | 79 | 1012.1 |
| 20260510060532 | 16 | 277 | 8.0 | 14.5 | 0.00 | 1.45 | 0.00 | 79 | 1012.1 |
| 20260510055332 | 16 | 269 | 9.7 | 11.3 | 0.00 | 1.45 | 0.00 | 80 | 1012.1 |
| 20260510054905 | 16 | 297 | 6.4 | 11.3 | 0.00 | 1.45 | 0.00 | 81 | 1012.0 |
| 20260510054339 | 15 | 269 | 8.0 | 11.3 | 0.00 | 1.45 | 0.00 | 81 | 1012.0 |
| 20260510053859 | 15 | 265 | 8.0 | 11.3 | 0.00 | 1.45 | 0.00 | 81 | 1012.0 |
| 20260510053450 | 15 | 273 | 8.0 | 12.9 | 0.00 | 1.45 | 0.00 | 82 | 1012.0 |
| 20260510053146 | 15 | 245 | 9.7 | 14.5 | 0.00 | 1.45 | 0.00 | 84 | 1012.0 |
| 20260510053020 | 15 | 270 | 8.0 | 12.9 | 0.00 | 1.45 | 0.00 | 83 | 1011.9 |
| 20260510052006 | 15 | 265 | 14.5 | 24.1 | 0.00 | 1.47 | 0.00 | 86 | 1011.9 |
| 20260510051932 | 15 | 257 | 9.7 | 22.5 | 0.00 | 1.47 | 0.00 | 85 | 1012.0 |
| 20260510051602 | 15 | 266 | 14.5 | 24.1 | 0.00 | 1.47 | 0.00 | 86 | 1012.0 |
| 20260510050432 | 15 | 206 | 12.9 | 19.3 | 0.00 | 1.47 | 0.00 | 86 | 1011.9 |
| 20260510045831 | 15 | 220 | 11.3 | 17.7 | 0.00 | 1.47 | 0.00 | 85 | 1011.9 |
| 20260510045613 | 15 | 274 | 3.2 | 16.1 | 0.00 | 1.47 | 0.00 | 84 | 1011.8 |
| 20260510045534 | 15 | 257 | 11.3 | 16.1 | 0.00 | 1.47 | 0.00 | 86 | 1011.9 |
| 20260510044424 | 15 | 243 | 8.0 | 16.1 | 0.00 | 1.47 | 0.00 | 86 | 1011.9 |
| 20260510043831 | 15 | 239 | 4.8 | 9.7 | 0.00 | 1.47 | 0.00 | 85 | 1012.0 |
| 20260510043333 | 15 | 247 | 6.4 | 9.7 | 0.00 | 1.47 | 0.00 | 85 | 1011.9 |
| 20260510042832 | 15 | 263 | 3.2 | 8.0 | 0.00 | 1.47 | 0.00 | 85 | 1011.9 |
| 20260510042412 | 15 | 248 | 4.8 | 8.0 | 0.00 | 1.47 | 0.00 | 84 | 1011.9 |
| 20260510042128 | 15 | 263 | 4.8 | 12.9 | 0.00 | 1.47 | 0.00 | 84 | 1012.0 |
| 20260510041407 | 15 | 274 | 8.0 | 12.9 | 0.00 | 1.47 | 0.00 | 83 | 1012.0 |
| 20260510040940 | 15 | 290 | 6.4 | 11.3 | 0.00 | 1.47 | 0.00 | 83 | 1011.9 |
| 20260510040935 | 15 | 285 | 6.4 | 11.3 | 0.00 | 1.47 | 0.00 | 83 | 1012.0 |
| 20260510040910 | 15 | 243 | 8.0 | 12.9 | 0.00 | 1.47 | 0.00 | 84 | 1012.0 |
| 20260510040530 | 15 | 221 | 6.4 | 11.3 | 0.00 | 1.47 | 0.00 | 84 | 1012.0 |
| 20260510040118 | 15 | 259 | 6.4 | 9.7 | 0.00 | 1.47 | 0.00 | 83 | 1012.0 |
| 20260510034356 | 15 | 291 | 6.4 | 11.3 | 0.00 | 1.47 | 0.00 | 84 | 1012.0 |
| 20260510033952 | 15 | 288 | 8.0 | 12.9 | 0.00 | 1.47 | 0.00 | 84 | 1011.9 |
| 20260510033331 | 15 | 285 | 8.0 | 12.9 | 0.00 | 1.47 | 0.00 | 84 | 1012.0 |
| 20260510032942 | 15 | 281 | 6.4 | 11.3 | 0.00 | 1.47 | 0.00 | 84 | 1012.0 |
| 20260510032332 | 15 | 252 | 6.4 | 12.9 | 0.00 | 1.47 | 0.00 | 84 | 1012.0 |
| 20260510032231 | 15 | 300 | 6.4 | 14.5 | 0.00 | 1.47 | 0.00 | 84 | 1012.1 |
| 20260510031339 | 15 | 295 | 9.7 | 14.5 | 0.00 | 1.47 | 0.00 | 84 | 1012.1 |
| 20260510031019 | 15 | 312 | 9.7 | 12.9 | 0.00 | 1.47 | 0.00 | 85 | 1012.3 |
| 20260510030950 | 15 | 316 | 9.7 | 17.7 | 0.00 | 1.47 | 0.00 | 84 | 1012.0 |
| 20260510030612 | 15 | 302 | 9.7 | 17.7 | 0.00 | 1.47 | 0.00 | 84 | 1012.1 |
| 20260510030132 | 15 | 332 | 8.0 | 14.5 | 0.00 | 1.47 | 0.00 | 84 | 1012.1 |
| 20260510025501 | 15 | 290 | 9.7 | 12.9 | 0.00 | 1.47 | 0.00 | 84 | 1012.2 |
| 20260510024623 | 15 | 305 | 6.4 | 11.3 | 0.00 | 1.47 | 0.00 | 85 | 1012.3 |
| 20260510023915 | 15 | 300 | 3.2 | 11.3 | 0.00 | 1.47 | 0.00 | 85 | 1012.4 |
| 20260510023348 | 15 | 307 | 4.8 | 11.3 | 0.00 | 1.47 | 0.00 | 85 | 1012.4 |
| 20260510022911 | 15 | 321 | 4.8 | 14.5 | 0.00 | 1.47 | 0.00 | 85 | 1012.4 |
| 20260510022331 | 15 | 306 | 9.7 | 14.5 | 0.00 | 1.47 | 0.00 | 85 | 1012.4 |
| 20260510021904 | 15 | 291 | 8.0 | 11.3 | 0.00 | 1.47 | 0.00 | 85 | 1012.4 |
| 20260510021451 | 15 | 322 | 8.0 | 11.3 | 0.00 | 1.47 | 0.00 | 85 | 1012.4 |
| 20260510020857 | 15 | 271 | 8.0 | 11.3 | 0.00 | 1.47 | 0.00 | 85 | 1012.2 |
| 20260510020447 | 15 | 300 | 6.4 | 9.7 | 0.00 | 1.47 | 0.00 | 85 | 1012.2 |
| 20260510015832 | 15 | 285 | 6.4 | 9.7 | 0.00 | 1.47 | 0.00 | 86 | 1012.2 |
| 20260510015435 | 14 | 274 | 3.2 | 8.0 | 0.00 | 1.47 | 0.00 | 88 | 1012.2 |
| 20260510014831 | 14 | 263 | 1.6 | 4.8 | 0.00 | 1.47 | 0.00 | 88 | 1012.3 |
| 20260510014430 | 15 | 288 | 3.2 | 4.8 | 0.00 | 1.47 | 0.00 | 88 | 1012.3 |
| 20260510013840 | 15 | 309 | 0.0 | 1.6 | 0.00 | 1.47 | 0.00 | 87 | 1012.1 |
| 20260510013413 | 15 | 309 | 0.0 | 3.2 | 0.00 | 1.47 | 0.00 | 88 | 1012.1 |
| 20260510012830 | 15 | 309 | 0.0 | 3.2 | 0.00 | 1.47 | 0.00 | 87 | 1012.2 |
| 20260510012327 | 15 | 335 | 3.2 | 3.2 | 0.00 | 1.47 | 0.00 | 88 | 1012.1 |
| 20260510011823 | 15 | 75 | 0.0 | 0.0 | 0.00 | 1.47 | 0.00 | 88 | 1012.2 |
| 20260510011405 | 15 | 75 | 0.0 | 0.0 | 0.00 | 1.47 | 0.00 | 88 | 1012.2 |
| 20260510010816 | 15 | 75 | 0.0 | 0.0 | 0.00 | 1.47 | 0.00 | 88 | 1012.2 |
| 20260510010408 | 15 | 75 | 0.0 | 0.0 | 0.00 | 1.47 | 0.00 | 88 | 1012.3 |
| 20260510005813 | 15 | 75 | 0.0 | 1.6 | 0.00 | 1.47 | 0.00 | 88 | 1012.3 |
| 20260510005350 | 15 | 75 | 0.0 | 1.6 | 0.00 | 1.47 | 0.00 | 87 | 1012.3 |
| 20260510004812 | 15 | 73 | 0.0 | 0.0 | 0.00 | 1.47 | 0.00 | 87 | 1012.5 |
| 20260510004342 | 15 | 73 | 0.0 | 6.4 | 0.00 | 1.47 | 0.00 | 87 | 1012.5 |
| 20260510003931 | 15 | 73 | 3.2 | 6.4 | 0.00 | 1.47 | 0.00 | 87 | 1012.5 |
| 20260510003443 | 15 | 309 | 3.2 | 12.9 | 0.00 | 1.47 | 0.00 | 87 | 1012.9 |
| 20260510003357 | 15 | 193 | 1.6 | 4.8 | 0.00 | 1.47 | 0.00 | 87 | 1012.6 |
| 20260510002954 | 15 | 262 | 1.6 | 6.4 | 0.00 | 1.47 | 0.00 | 87 | 1012.7 |
| 20260510002502 | 15 | 116 | 3.2 | 6.4 | 0.00 | 1.47 | 0.00 | 87 | 1012.6 |
| 20260510002013 | 15 | 292 | 0.0 | 8.0 | 0.00 | 1.47 | 0.00 | 87 | 1012.8 |
| 20260510001211 | 15 | 338 | 6.4 | 12.9 | 0.00 | 1.47 | 0.00 | 87 | 1013.0 |
| 20260510000525 | 15 | 321 | 8.0 | 11.3 | 0.00 | 1.47 | 0.00 | 88 | 1013.2 |
| 20260510000334 | 15 | 304 | 8.0 | 12.9 | 0.00 | 1.47 | 0.00 | 88 | 1012.9 |
| 20260509235941 | 15 | 331 | 8.0 | 12.9 | 0.00 | 1.47 | 0.00 | 88 | 1012.9 |
| 20260509235349 | 15 | 313 | 9.7 | 12.9 | 0.00 | 1.47 | 0.00 | 88 | 1013.0 |
| 20260509234743 | 15 | 300 | 3.2 | 9.7 | 0.00 | 1.47 | 0.00 | 87 | 1013.2 |
| 20260509234739 | 15 | 326 | 8.0 | 14.5 | 0.00 | 1.47 | 0.00 | 88 | 1013.2 |
| 20260509234722 | 15 | 340 | 8.0 | 12.9 | 0.00 | 1.47 | 0.00 | 87 | 1013.3 |
| 20260509234718 | 15 | 302 | 6.4 | 9.7 | 0.00 | 1.47 | 0.00 | 87 | 1013.2 |
| 20260509234607 | 15 | 311 | 8.0 | 12.9 | 0.00 | 1.47 | 0.00 | 88 | 1013.2 |
| 20260509233503 | 15 | 355 | 6.4 | 11.3 | 0.00 | 1.47 | 0.00 | 87 | 1013.2 |
| 20260509233336 | 15 | 339 | 9.7 | 14.5 | 0.00 | 1.47 | 0.00 | 88 | 1013.2 |
| 20260509232931 | 15 | 321 | 8.0 | 14.5 | 0.00 | 1.47 | 0.00 | 87 | 1013.3 |
| 20260509232439 | 15 | 321 | 9.7 | 14.5 | 0.00 | 1.47 | 0.00 | 87 | 1013.3 |
| 20260509225936 | 15 | 321 | 6.4 | 14.5 | 0.00 | 1.47 | 0.00 | 88 | 1013.3 |
| 20260509225911 | 15 | 321 | 6.4 | 11.3 | 0.00 | 1.47 | 0.00 | 88 | 1013.2 |
| 20260509225512 | 15 | 336 | 8.0 | 12.9 | 0.00 | 1.47 | 0.00 | 88 | 1013.2 |
| 20260509224417 | 15 | 311 | 6.4 | 14.5 | 0.00 | 1.47 | 0.00 | 88 | 1013.3 |
| 20260509223812 | 15 | 304 | 6.4 | 9.7 | 0.00 | 1.47 | 0.00 | 88 | 1013.2 |
| 20260509223412 | 15 | 334 | 6.4 | 12.9 | 0.00 | 1.47 | 0.00 | 88 | 1013.2 |
| 20260509222858 | 15 | 346 | 6.4 | 12.9 | 0.00 | 1.47 | 0.00 | 88 | 1013.3 |
| 20260509222348 | 15 | 305 | 8.0 | 14.5 | 0.00 | 1.47 | 0.00 | 88 | 1013.4 |
| 20260509222214 | 15 | 309 | 6.4 | 8.0 | 0.00 | 1.47 | 0.00 | 88 | 1013.3 |
| 20260509221848 | 15 | 319 | 8.0 | 14.5 | 0.00 | 1.47 | 0.00 | 88 | 1013.3 |
| 20260509221141 | 15 | 312 | 4.8 | 8.0 | 0.00 | 1.47 | 0.00 | 88 | 1013.4 |
| 20260509220811 | 15 | 295 | 4.8 | 8.0 | 0.00 | 0.00 | 0.00 | 88 | 1013.4 |
| 20260509215821 | 15 | 325 | 4.8 | 9.7 | 0.00 | 1.47 | 1.47 | 88 | 1013.3 |
| 20260509215342 | 15 | 311 | 4.8 | 9.7 | 0.00 | 1.47 | 1.47 | 87 | 1013.3 |
| 20260509214806 | 15 | 328 | 4.8 | 8.0 | 0.00 | 1.47 | 1.47 | 87 | 1013.3 |
| 20260509214338 | 15 | 294 | 6.4 | 8.0 | 0.00 | 1.47 | 1.47 | 88 | 1013.3 |
| 20260509213804 | 15 | 307 | 3.2 | 6.4 | 0.00 | 1.47 | 1.47 | 89 | 1013.4 |
| 20260509213407 | 15 | 309 | 3.2 | 4.8 | 0.00 | 1.47 | 1.47 | 89 | 1013.3 |
| 20260509213038 | 15 | 311 | 3.2 | 6.4 | 0.00 | 1.47 | 1.47 | 89 | 1013.4 |
| 20260509212439 | 15 | 343 | 1.6 | 4.8 | 0.00 | 1.47 | 1.47 | 90 | 1013.3 |
| 20260509212435 | 15 | 333 | 3.2 | 4.8 | 0.00 | 1.47 | 1.47 | 90 | 1013.4 |
| 20260509212348 | 15 | 313 | 3.2 | 6.4 | 0.00 | 1.47 | 1.47 | 89 | 1013.3 |
| 20260509212018 | 15 | 355 | 3.2 | 4.8 | 0.00 | 1.47 | 1.47 | 90 | 1013.2 |
| 20260509210422 | 15 | 348 | 0.0 | 0.0 | 0.00 | 1.47 | 1.47 | 91 | 1013.4 |
| 20260509205307 | 15 | 53 | 0.0 | 0.0 | 0.00 | 1.47 | 1.47 | 91 | 1013.2 |
| 20260509204915 | 15 | 53 | 0.0 | 0.0 | 0.00 | 1.47 | 1.47 | 91 | 1013.1 |
| 20260509204858 | 15 | 53 | 0.0 | 0.0 | 0.00 | 1.47 | 1.47 | 91 | 1013.1 |
| 20260509203759 | 15 | 53 | 0.0 | 0.0 | 0.00 | 1.47 | 1.47 | 91 | 1012.9 |
| 20260509203658 | 15 | 53 | 0.0 | 0.0 | 0.00 | 1.47 | 1.47 | 91 | 1012.8 |
| 20260509203411 | 15 | 53 | 0.0 | 0.0 | 0.00 | 1.47 | 1.47 | 91 | 1012.8 |
| 20260509202420 | 15 | 53 | 0.0 | 0.0 | 0.00 | 1.47 | 1.47 | 92 | 1012.7 |
| 20260509201848 | 15 | 53 | 0.0 | 0.0 | 0.00 | 1.47 | 1.47 | 92 | 1012.6 |
| 20260509201836 | 15 | 53 | 0.0 | 0.0 | 0.00 | 1.47 | 1.47 | 92 | 1012.5 |
| 20260509200817 | 15 | 53 | 0.0 | 1.6 | 0.00 | 1.47 | 1.47 | 92 | 1012.5 |
| 20260509200258 | 15 | 53 | 0.0 | 4.8 | 0.00 | 1.47 | 1.47 | 92 | 1012.3 |
| 20260509200146 | 15 | 27 | 1.6 | 8.0 | 0.00 | 1.47 | 1.47 | 92 | 1012.3 |
| 20260509200142 | 15 | 13 | 6.4 | 8.0 | 0.00 | 1.47 | 1.47 | 91 | 1012.1 |
| 20260509195930 | 15 | 53 | 3.2 | 4.8 | 0.00 | 1.47 | 1.47 | 92 | 1012.2 |
| 20260509195600 | 15 | 39 | 3.2 | 4.8 | 0.00 | 1.47 | 1.47 | 92 | 1012.3 |
| 20260509194458 | 15 | 25 | 4.8 | 8.0 | 0.00 | 1.47 | 1.47 | 91 | 1012.2 |
| 20260509193344 | 15 | 32 | 3.2 | 4.8 | 0.00 | 1.47 | 1.47 | 92 | 1012.0 |
| 20260509192758 | 15 | 19 | 1.6 | 3.2 | 0.00 | 1.47 | 1.47 | 93 | 1012.0 |
| 20260509192637 | 15 | 74 | 1.6 | 3.2 | 0.00 | 1.47 | 1.47 | 93 | 1011.9 |
| 20260509191759 | 15 | 78 | 0.0 | 1.6 | 0.00 | 1.47 | 1.47 | 94 | 1011.9 |
| 20260509191419 | 15 | 48 | 1.6 | 6.4 | 0.03 | 1.47 | 1.47 | 93 | 1011.6 |
| 20260509191350 | 15 | 78 | 0.0 | 6.4 | 0.03 | 1.47 | 1.47 | 93 | 1011.7 |
| 20260509190259 | 15 | 46 | 4.8 | 8.0 | 0.03 | 1.47 | 1.47 | 93 | 1011.4 |
| 20260509185914 | 14 | 52 | 4.8 | 11.3 | 0.03 | 1.45 | 1.47 | 93 | 1011.3 |
| 20260509185316 | 14 | 53 | 4.8 | 11.3 | 0.03 | 1.45 | 1.47 | 94 | 1011.3 |
| 20260509184907 | 14 | 7 | 4.8 | 9.7 | 0.03 | 1.45 | 1.47 | 93 | 1011.1 |
| 20260509184312 | 14 | 45 | 6.4 | 9.7 | 0.03 | 1.45 | 1.47 | 94 | 1011.0 |
| 20260509183809 | 14 | 44 | 3.2 | 6.4 | 0.03 | 1.45 | 1.47 | 94 | 1010.9 |
| 20260509183305 | 14 | 59 | 3.2 | 6.4 | 0.03 | 1.45 | 1.47 | 95 | 1010.9 |
| 20260509182758 | 14 | 27 | 1.6 | 6.4 | 0.03 | 1.45 | 1.47 | 94 | 1010.9 |
| 20260509182306 | 15 | 259 | 0.0 | 0.0 | 0.03 | 1.45 | 1.47 | 95 | 1010.9 |
| 20260509181844 | 15 | 259 | 0.0 | 0.0 | 0.03 | 1.45 | 1.47 | 95 | 1010.8 |
| 20260509181300 | 15 | 259 | 0.0 | 1.6 | 0.00 | 1.45 | 1.45 | 95 | 1010.8 |
| 20260509180843 | 15 | 259 | 0.0 | 3.2 | 0.03 | 1.45 | 1.45 | 95 | 1010.8 |
| 20260509180258 | 15 | 257 | 3.2 | 6.4 | 0.05 | 1.45 | 1.45 | 95 | 1010.6 |
| 20260509175836 | 15 | 291 | 3.2 | 6.4 | 0.05 | 1.42 | 1.45 | 95 | 1010.6 |
| 20260509175419 | 15 | 269 | 3.2 | 6.4 | 0.08 | 1.42 | 1.45 | 95 | 1010.6 |
| 20260509174855 | 15 | 306 | 0.0 | 4.8 | 0.15 | 1.42 | 1.45 | 94 | 1010.5 |
| 20260509174411 | 15 | 27 | 1.6 | 9.7 | 0.18 | 1.42 | 1.45 | 94 | 1010.5 |
| 20260509173819 | 14 | 30 | 4.8 | 22.5 | 0.23 | 1.42 | 1.45 | 93 | 1010.4 |
| 20260509173405 | 14 | 63 | 16.1 | 27.4 | 0.30 | 1.42 | 1.45 | 93 | 1010.2 |
| 20260509172757 | 14 | 46 | 14.5 | 27.4 | 0.36 | 1.42 | 1.45 | 93 | 1010.1 |
| 20260509172359 | 14 | 42 | 16.1 | 20.9 | 0.43 | 1.42 | 1.45 | 94 | 1010.2 |
| 20260509171810 | 14 | 53 | 12.9 | 20.9 | 0.51 | 1.42 | 1.45 | 94 | 1010.5 |
| 20260509171354 | 14 | 60 | 11.3 | 19.3 | 0.56 | 1.42 | 1.45 | 94 | 1010.5 |
| 20260509170803 | 14 | 69 | 12.9 | 19.3 | 0.61 | 1.42 | 1.45 | 94 | 1010.5 |
| 20260509170258 | 14 | 52 | 12.9 | 17.7 | 0.69 | 1.42 | 1.42 | 94 | 1010.5 |
| 20260509165757 | 14 | 62 | 12.9 | 17.7 | 0.76 | 0.69 | 1.40 | 94 | 1010.9 |
| 20260509165257 | 14 | 51 | 11.3 | 19.3 | 0.81 | 0.69 | 1.37 | 94 | 1011.2 |
| 20260509164820 | 14 | 51 | 12.9 | 19.3 | 0.81 | 0.69 | 1.32 | 94 | 1011.6 |
| 20260509164339 | 14 | 56 | 14.5 | 19.3 | 0.84 | 0.69 | 1.27 | 94 | 1011.9 |
| 20260509163756 | 14 | 54 | 8.0 | 12.9 | 0.79 | 0.69 | 1.19 | 94 | 1012.1 |
| 20260509163335 | 14 | 53 | 4.8 | 8.0 | 0.76 | 0.69 | 1.14 | 94 | 1012.3 |
| 20260509162756 | 15 | 46 | 4.8 | 6.4 | 0.71 | 0.69 | 1.09 | 93 | 1012.4 |
| 20260509162332 | 15 | 37 | 4.8 | 6.4 | 0.69 | 0.69 | 1.02 | 93 | 1012.6 |
| 20260509161919 | 15 | 60 | 3.2 | 4.8 | 0.61 | 0.69 | 0.97 | 93 | 1012.8 |
| 20260509161524 | 15 | 55 | 3.2 | 9.7 | 0.51 | 0.69 | 0.79 | 91 | 1013.1 |
| 20260509161451 | 15 | 72 | 3.2 | 6.4 | 0.56 | 0.69 | 0.89 | 92 | 1013.1 |
| 20260509160341 | 15 | 55 | 8.0 | 9.7 | 0.43 | 0.69 | 0.71 | 91 | 1013.1 |
| 20260509155908 | 15 | 44 | 6.4 | 8.0 | 0.36 | 0.30 | 0.61 | 89 | 1013.2 |
| 20260509155258 | 15 | 60 | 1.6 | 9.7 | 0.30 | 0.30 | 0.53 | 88 | 1013.4 |
| 20260509154909 | 15 | 109 | 4.8 | 12.9 | 0.28 | 0.30 | 0.51 | 88 | 1013.5 |
| 20260509154308 | 16 | 103 | 6.4 | 17.7 | 0.28 | 0.30 | 0.43 | 87 | 1013.2 |
| 20260509153857 | 16 | 92 | 8.0 | 24.1 | 0.28 | 0.30 | 0.41 | 85 | 1012.6 |
| 20260509153305 | 16 | 87 | 14.5 | 24.1 | 0.28 | 0.30 | 0.38 | 85 | 1012.1 |
| 20260509152834 | 16 | 82 | 20.9 | 38.6 | 0.23 | 0.30 | 0.33 | 90 | 1011.2 |
| 20260509152818 | 16 | 77 | 14.5 | 24.1 | 0.25 | 0.30 | 0.38 | 86 | 1012.1 |
| 20260509152400 | 16 | 96 | 16.1 | 27.4 | 0.23 | 0.30 | 0.36 | 86 | 1012.1 |
| 20260509152028 | 16 | 74 | 20.9 | 29.0 | 0.23 | 0.30 | 0.33 | 88 | 1011.8 |
| 20260509150840 | 16 | 49 | 30.6 | 41.8 | 0.25 | 0.30 | 0.33 | 91 | 1010.3 |
| 20260509150307 | 16 | 72 | 30.6 | 41.8 | 0.25 | 0.30 | 0.30 | 91 | 1009.4 |
| 20260509145840 | 16 | 69 | 29.0 | 37.0 | 0.25 | 0.05 | 0.28 | 91 | 1009.2 |
| 20260509145257 | 16 | 79 | 20.9 | 33.8 | 0.23 | 0.05 | 0.25 | 91 | 1009.8 |
| 20260509144835 | 16 | 62 | 25.7 | 35.4 | 0.20 | 0.05 | 0.20 | 90 | 1010.1 |
| 20260509144257 | 16 | 56 | 25.7 | 35.4 | 0.15 | 0.05 | 0.15 | 89 | 1010.2 |
| 20260509144128 | 16 | 62 | 25.7 | 33.8 | 0.13 | 0.05 | 0.15 | 89 | 1010.6 |
| 20260509143418 | 16 | 68 | 24.1 | 30.6 | 0.10 | 0.05 | 0.13 | 88 | 1011.0 |
| 20260509142824 | 16 | 76 | 22.5 | 33.8 | 0.10 | 0.05 | 0.13 | 87 | 1011.5 |
| 20260509142412 | 16 | 55 | 25.7 | 33.8 | 0.10 | 0.05 | 0.13 | 86 | 1012.2 |
| 20260509141757 | 17 | 86 | 19.3 | 32.2 | 0.08 | 0.05 | 0.10 | 86 | 1012.7 |
| 20260509141718 | 17 | 91 | 20.9 | 29.0 | 0.05 | 0.05 | 0.05 | 84 | 1013.2 |
| 20260509141541 | 17 | 105 | 20.9 | 30.6 | 0.08 | 0.05 | 0.08 | 86 | 1013.0 |
| 20260509140400 | 17 | 105 | 17.7 | 27.4 | 0.03 | 0.05 | 0.05 | 83 | 1013.2 |
| 20260509135805 | 18 | 86 | 17.7 | 24.1 | 0.00 | 0.03 | 0.03 | 82 | 1013.1 |
| 20260509135403 | 18 | 91 | 16.1 | 27.4 | 0.00 | 0.03 | 0.03 | 80 | 1013.2 |
| 20260509135347 | 18 | 103 | 12.9 | 24.1 | 0.00 | 0.03 | 0.03 | 81 | 1013.2 |
| 20260509134257 | 18 | 103 | 17.7 | 27.4 | 0.00 | 0.03 | 0.03 | 78 | 1013.1 |
| 20260509133756 | 18 | 84 | 14.5 | 24.1 | 0.00 | 0.03 | 0.03 | 77 | 1012.9 |
| 20260509133343 | 18 | 80 | 9.7 | 16.1 | 0.00 | 0.03 | 0.03 | 76 | 1012.8 |
| 20260509132757 | 18 | 70 | 3.2 | 22.5 | 0.00 | 0.03 | 0.03 | 76 | 1012.7 |
| 20260509132339 | 18 | 77 | 8.0 | 25.7 | 0.00 | 0.03 | 0.03 | 77 | 1012.3 |
| 20260509131757 | 18 | 38 | 19.3 | 37.0 | 0.00 | 0.03 | 0.03 | 78 | 1012.0 |
| 20260509131341 | 18 | 70 | 25.7 | 37.0 | 0.00 | 0.03 | 0.03 | 78 | 1011.6 |
| 20260509130757 | 18 | 58 | 24.1 | 37.0 | 0.00 | 0.03 | 0.03 | 79 | 1011.3 |
| 20260509130542 | 18 | 63 | 25.7 | 35.4 | 0.00 | 0.03 | 0.03 | 82 | 1011.8 |
| 20260509130442 | 18 | 61 | 27.4 | 35.4 | 0.00 | 0.03 | 0.03 | 80 | 1011.3 |
| 20260509125909 | 18 | 71 | 25.7 | 35.4 | 0.00 | 0.03 | 0.03 | 82 | 1011.5 |
| 20260509124916 | 18 | 80 | 20.9 | 35.4 | 0.00 | 0.03 | 0.03 | 80 | 1011.8 |
| 20260509124257 | 18 | 70 | 22.5 | 35.4 | 0.00 | 0.03 | 0.03 | 78 | 1011.7 |
| 20260509123910 | 18 | 67 | 20.9 | 35.4 | 0.00 | 0.03 | 0.03 | 76 | 1011.8 |
| 20260509123312 | 18 | 63 | 24.1 | 32.2 | 0.00 | 0.03 | 0.03 | 76 | 1011.8 |
| 20260509122905 | 18 | 72 | 20.9 | 30.6 | 0.00 | 0.03 | 0.03 | 79 | 1011.9 |
| 20260509122714 | 18 | 65 | 24.1 | 29.0 | 0.00 | 0.03 | 0.03 | 81 | 1012.3 |
| 20260509122345 | 18 | 45 | 19.3 | 29.0 | 0.00 | 0.03 | 0.03 | 81 | 1012.1 |
| 20260509121310 | 18 | 39 | 20.9 | 29.0 | 0.00 | 0.03 | 0.03 | 81 | 1012.6 |
| 20260509120757 | 18 | 79 | 20.9 | 29.0 | 0.00 | 0.03 | 0.03 | 81 | 1013.0 |
| 20260509120316 | 18 | 68 | 24.1 | 29.0 | 0.00 | 0.03 | 0.03 | 80 | 1013.1 |
| 20260509115847 | 18 | 87 | 22.5 | 27.4 | 0.00 | 0.03 | 0.03 | 79 | 1013.2 |
| 20260509115255 | 18 | 63 | 20.9 | 30.6 | 0.00 | 0.03 | 0.03 | 80 | 1013.3 |
| 20260509114842 | 18 | 51 | 20.9 | 30.6 | 0.00 | 0.03 | 0.03 | 81 | 1013.5 |
| 20260509114333 | 18 | 70 | 17.7 | 32.2 | 0.00 | 0.03 | 0.03 | 80 | 1013.8 |
| 20260509114313 | 18 | 79 | 19.3 | 27.4 | 0.00 | 0.03 | 0.03 | 80 | 1013.7 |
| 20260509113255 | 18 | 75 | 24.1 | 33.8 | 0.00 | 0.03 | 0.03 | 81 | 1013.8 |
| 20260509112834 | 18 | 67 | 19.3 | 33.8 | 0.00 | 0.03 | 0.03 | 81 | 1013.8 |
| 20260509112255 | 18 | 99 | 24.1 | 32.2 | 0.00 | 0.03 | 0.03 | 81 | 1013.9 |
| 20260509111834 | 18 | 86 | 19.3 | 27.4 | 0.00 | 0.03 | 0.03 | 81 | 1014.0 |
| 20260509111255 | 18 | 111 | 17.7 | 30.6 | 0.00 | 0.03 | 0.03 | 82 | 1014.0 |
| 20260509110756 | 18 | 74 | 16.1 | 35.4 | 0.00 | 0.03 | 0.03 | 83 | 1013.8 |
| 20260509110431 | 18 | 117 | 27.4 | 35.4 | 0.00 | 0.03 | 0.03 | 82 | 1013.8 |
| 20260509105821 | 18 | 76 | 27.4 | 33.8 | 0.00 | 0.03 | 0.03 | 83 | 1013.7 |
| 20260509105410 | 18 | 70 | 24.1 | 30.6 | 0.00 | 0.03 | 0.03 | 83 | 1013.8 |
| 20260509104815 | 18 | 103 | 19.3 | 30.6 | 0.00 | 0.03 | 0.03 | 84 | 1013.8 |
| 20260509104309 | 18 | 89 | 24.1 | 30.6 | 0.00 | 0.03 | 0.03 | 83 | 1013.8 |
| 20260509103839 | 18 | 94 | 20.9 | 29.0 | 0.00 | 0.03 | 0.03 | 83 | 1013.8 |
| 20260509103255 | 18 | 84 | 19.3 | 27.4 | 0.00 | 0.03 | 0.03 | 83 | 1014.0 |
| 20260509102802 | 18 | 76 | 17.7 | 29.0 | 0.00 | 0.03 | 0.03 | 82 | 1014.0 |
| 20260509102352 | 18 | 89 | 20.9 | 29.0 | 0.00 | 0.03 | 0.03 | 82 | 1014.0 |
| 20260509102051 | 18 | 116 | 22.5 | 29.0 | 0.00 | 0.03 | 0.03 | 81 | 1014.0 |
| 20260509101346 | 18 | 96 | 19.3 | 27.4 | 0.00 | 0.03 | 0.03 | 81 | 1013.9 |
| 20260509100849 | 18 | 89 | 22.5 | 33.8 | 0.00 | 0.03 | 0.03 | 83 | 1013.8 |
| 20260509100828 | 18 | 84 | 19.3 | 32.2 | 0.00 | 0.03 | 0.03 | 82 | 1013.7 |
| 20260509100538 | 18 | 81 | 24.1 | 33.8 | 0.00 | 0.03 | 0.03 | 83 | 1013.8 |
| 20260509095554 | 18 | 94 | 24.1 | 33.8 | 0.00 | 0.03 | 0.03 | 82 | 1013.7 |
| 20260509095456 | 18 | 92 | 25.7 | 33.8 | 0.00 | 0.03 | 0.03 | 82 | 1013.8 |
| 20260509094336 | 18 | 77 | 24.1 | 30.6 | 0.00 | 0.03 | 0.03 | 80 | 1013.6 |
| 20260509093805 | 18 | 87 | 20.9 | 32.2 | 0.00 | 0.03 | 0.03 | 81 | 1013.5 |
| 20260509093256 | 18 | 91 | 24.1 | 32.2 | 0.00 | 0.03 | 0.03 | 80 | 1013.3 |
| 20260509093146 | 18 | 113 | 22.5 | 32.2 | 0.00 | 0.03 | 0.03 | 82 | 1013.4 |
| 20260509092858 | 18 | 97 | 19.3 | 30.6 | 0.00 | 0.03 | 0.03 | 81 | 1013.4 |
| 20260509092038 | 18 | 97 | 22.5 | 30.6 | 0.00 | 0.03 | 0.03 | 81 | 1013.3 |